Terminal Aerodrome Forecast
Issued by NWS King Salmon, AK

Home | Current Version | Previous Version | Text Only | Print | Product List | Glossary On
Versions: 1 2 3 4 5 6 7 8 9 10 11 12 13 14 15 16 17 18 19 20 21 22 23 24 25 26 27 28 29 30 31 32 33 34 35 36 37 38
691
FTAK31 PANC 241516 AAA
TAFAKN
TAF AMD
PAKN 241516Z 2415/2512 23011KT 6SM -RA BR SCT008 OVC020
     FM242100 25011KT P6SM -SHRA BKN015 OVC035=

USA.gov is the U.S. government's official web portal to all federal, state and local government web resources and services.